638  
ASUS41 KPHI 290012  
RWRPHI  
 
REGIONAL WEATHER ROUNDUP  
NATIONAL WEATHER SERVICE MOUNT HOLLY NJ  
800 PM EDT WED JUN 28 2017  
 
NOTE: "FAIR" INDICATES FEW OR NO CLOUDS BELOW 12,000 FEET WITH NO  
SIGNIFICANT WEATHER AND/OR S TO VISIBILITY
.  
 
* = STATION DOES NOT REPORT PRECIPITATION (E.G. RAIN, SNOW, ETC.)  
OR FOG.
 
 
NJZ015>026-290100-  
SOUTHERN NEW JERSEY  
 
CITY SKY/WX TMP DP RH WIND PRES REMARKS
 
POMONA CLEAR 76 51 41 SW8 30.14  
6HR MIN TEMP: 76; 6HR MAX TEMP: 81;  
 
WILDWOOD* CLEAR 69 54 58 S10 30.17S  
MILLVILLE CLEAR 71 57 61 S5 30.14S  
WRIGHTSTOWN CLEAR 71 54 55 W7 30.09S  
MOUNT HOLLY CLEAR 73 51 46 CALM 30.11S  
TRENTON CLEAR 75 50 41 SW5 30.11S  
6HR MIN TEMP: 75; 6HR MAX TEMP: 79;  
 

 
NJZ001>014-290100-  
NORTHERN NEW JERSEY  
 
CITY SKY/WX TMP DP RH WIND PRES REMARKS
 
SUSSEX CLEAR 72 53 51 CALM 30.09R  
ANDOVER* N/A 68 59 73 CALM 30.10R  
MORRISTOWN MOCLDY 75 52 43 W6 30.10R  
NEWARK MOCLDY 78 48 34 SW10 30.08S  
TETERBORO CLEAR 76 48 37 W10 30.07S  
CALDWELL CLEAR 77 50 38 VRB3 30.09S  
SOMERVILLE PTCLDY 74 52 46 CALM 30.08R  
ALLAIRE* CLEAR 73 53 49 S3 30.12S  
TOMS RIVER* CLEAR 73 54 51 SW5 30.12F  
 

 
PAZ043-044-047-054-055-060>062-066>071-290100-  
EASTERN PENNSYLVANIA  
 
CITY SKY/WX TMP DP RH WIND PRES REMARKS
 
PHILADELPHIA MOCLDY 77 49 37 SW10 30.12S  
6HR MIN TEMP: 77; 6HR MAX TEMP: 81;  
 
NORTH PHILA CLEAR 76 49 38 W10 30.13S  
BLUE BELL* PTCLDY 72 50 46 SW5 30.13S  
DOYLESTOWN PTCLDY 73 50 44 S3 30.11S  
QUAKERTOWN* CLOUDY 72 54 53 SW3 30.12F  
PERKASIE* FAIR 72 50 46 SW3 30.13F  
POTTSTOWN PTCLDY 72 50 45 S5 30.13F  
LANCASTER CLOUDY 75 51 43 S5 30.11F  
COATESVILLE CLOUDY 70 52 52 CALM 30.15F  
READING CLOUDY 74 53 48 SW6 30.10F  
6HR MIN TEMP: 74; 6HR MAX TEMP: 80;  
 
ALLENTOWN CLEAR 72 51 47 SW7 30.10S  
6HR MIN TEMP: 72; 6HR MAX TEMP: 79;  
 
MOUNT POCONO PTCLDY 66 50 56 W5 30.14S  
6HR MIN TEMP: 66; 6HR MAX TEMP: 70;  
 
HAZLETON N/A 68 48 49 CALM 30.17S  
LEHIGHTON FAIR 70 57 64 CALM 30.11S  
WILKES BARRE CLOUDY 73 50 44 SW8 30.09S  
 

 
DEZALL-MDZ008-012-015-019-020-290100-  
DELAWARE AND EASTERN MARYLAND  
 
CITY SKY/WX TMP DP RH WIND PRES REMARKS
 
WILMINGTON CLEAR 74 50 42 SW6 30.13F  
6HR MIN TEMP: 74; 6HR MAX TEMP: 81;  
 
DOVER CLOUDY 72 59 64 CALM 30.13S  
GEORGETOWN CLEAR 71 55 56 S8 30.16F  
6HR MIN TEMP: 71; 6HR MAX TEMP: 81; 6HR PCP: TRACE;  
 
EASTON CLEAR 77 48 36 S5 30.18F  
ABERDEEN MOCLDY 71 55 58 SW3 30.14S  
PATUXENT MOCLDY 72 54 53 S7 30.16S  
OCEAN CITY N/A 69 60 73 VRB6 30.18F  
WALLOPS ISLAND CLEAR 70 59 68 S12 30.18F  
CAMBRIDGE CLEAR 73 55 53 CALM 30.15F  
SALISBURY CLEAR 72 58 61 S6 30.16S  
 

 
PAZ001-021-NYZ056-072-MDZ011-DCZ001-290100-  
OTHER NEARBY LOCATIONS  
 
CITY SKY/WX TMP DP RH WIND PRES REMARKS
 
HARRISBURG CLOUDY 75 51 43 SW8 30.11S  
STATE COLLEGE CLEAR 70 52 52 S6 30.12S  
WILLIAMSPORT CLOUDY 73 52 47 SW6 30.07S  
BINGHAMTON CLEAR 66 49 54 SW5 30.09S  
NEW YORK CITY CLEAR 75 48 38 CALM 30.11S  
BALTIMORE MOCLDY 73 56 54 VRB6 30.13S  
WASHINGTON DC CLOUDY 77 56 48 S13 30.13S  
 

 
 
 
CLICK HERE TO GO TO PREVIOUS BULLETINS.

The Nexlab PA Page
The Nexlab NJ Page
The Nexlab DE Page
The Nexlab MD Page Main Text Page